EA3GKP-8 Adeje ES current weather conditions

sailwx.info

Wind from 019

Air temperature 30.0° C
Dewpoint 12.8° C

Last reported at 2020-May-26 12:07 UTC.
Time now 2020-May-26 12:46 UTC

Location: N 28°09' W 016°44'.
View on Google Maps.

See reports from other nearby stations

  
Tides and Currents Weather Stations Pressure Air Temp Water Temp Dewpoint Dewpoint Depression Visibility Wind Speed Wind Dir Waves Ship Positions
date/time (UTC)wind fromknots sea level pressurealtimeterstation pressurevisibilityair tempwater tempwave heightnotes
2020-May-26 12:07 019 30.0
2020-May-26 12:02 017 29.4
2020-May-26 11:57 019 30.0
2020-May-26 11:53 019 29.4
2020-May-26 11:48 017 28.9
2020-May-26 11:43 019 28.3
2020-May-26 11:38 019 28.9
2020-May-26 11:33 020 29.4
2020-May-26 11:29 019 30.0
2020-May-26 11:24 016 30.0
2020-May-26 11:19 018 29.4
2020-May-26 11:14 016 29.4
2020-May-26 11:09 016 29.4
2020-May-26 11:04 018 29.4
2020-May-26 11:00 018 29.4
2020-May-26 10:50 018 28.9
2020-May-26 10:45 015 29.4
2020-May-26 10:40 017 28.9
2020-May-26 10:36 018 28.9
2020-May-26 10:31 018 29.4
2020-May-26 10:26 015 28.9
2020-May-26 10:21 015 28.9
2020-May-26 10:16 015 28.9
2020-May-26 10:12 017 28.9
2020-May-26 10:07 017 28.9
2020-May-26 10:02 016 28.3
2020-May-26 09:57 016 27.8
2020-May-26 09:52 016 27.8
2020-May-26 09:47 017 27.8
2020-May-26 09:43 014 27.8
2020-May-26 09:38 015 27.8
2020-May-26 09:33 016 27.8
2020-May-26 09:28 014 27.8
2020-May-26 09:23 014 27.8
2020-May-26 09:19 014 27.8
2020-May-26 09:14 016 27.8
2020-May-26 09:09 016 27.8
2020-May-26 09:04 014 28.3
2020-May-26 08:59 014 27.8
2020-May-26 08:54 015 28.3
2020-May-26 08:50 013 28.3
2020-May-26 08:40 014 28.3
2020-May-26 08:35 014 28.3
2020-May-26 08:30 013 27.8
2020-May-26 08:26 013 27.8
2020-May-26 08:21 013 27.8
2020-May-26 08:16 014 27.2
2020-May-26 08:11 014 26.7
2020-May-26 08:06 014 25.6
2020-May-26 08:02 016 23.9
2020-May-26 07:57 015 22.8
2020-May-26 07:52 016 22.2
2020-May-26 07:47 016 22.2
2020-May-26 07:42 014 22.2
2020-May-26 07:37 015 21.7
2020-May-26 07:33 015 21.7
2020-May-26 07:28 013 21.7
2020-May-26 07:23 013 21.7
2020-May-26 07:18 015 21.7
2020-May-26 07:13 015 21.7
2020-May-26 07:09 015 21.7
2020-May-26 07:04 015 21.1
2020-May-26 06:59 015 20.6
2020-May-26 06:54 015 20.0
2020-May-26 06:49 015 20.0
2020-May-26 06:44 014 20.0
2020-May-26 06:40 014 20.0
2020-May-26 06:30 014 20.0
2020-May-26 06:25 014 20.0
2020-May-26 06:20 013 20.0
2020-May-26 06:16 014 20.0
2020-May-26 06:11 014 20.0
2020-May-26 06:06 015 20.0
2020-May-26 06:01 013 20.6
2020-May-26 05:56 013 20.6
2020-May-26 05:52 013 20.6
2020-May-26 05:47 015 20.6
2020-May-26 05:42 014 20.6
2020-May-26 05:37 013 20.0
2020-May-26 05:32 013 20.0
2020-May-26 05:27 014 20.0
2020-May-26 05:23 015 20.0
2020-May-26 05:18 014 20.0
2020-May-26 05:13 013 20.0
2020-May-26 05:08 015 20.0
2020-May-26 05:03 013 20.0
2020-May-26 04:59 014 20.0
2020-May-26 04:54 015 20.0
2020-May-26 04:49 014 20.0
2020-May-26 04:44 015 20.6
2020-May-26 04:39 013 20.6
2020-May-26 04:34 015 20.6
2020-May-26 04:30 013 20.6
2020-May-26 04:20 014 20.6